Home > Weather > King Edward Point > Past weeks

Flag for South Georgia/Sandwich Is. Weather for the Past 2 Weeks in King Edward Point, South Georgia/Sandwich Is.

Now
50 °F

Partly cloudy.


Feels Like: 48 °F
Forecast: 35 / 40 °F
Wind: 6 mph from Northeast

Location: Mount Pleasant Airport

Current Time: Feb 12, 2016 at 10:31:45 PM

Latest Report: Feb 12, 2016 at 9:50 PM


Visibility: N/A

Pressure: 29.36 "Hg

Humidity: 76%

Dew point: 43 °F

Location of King Edward PointLocation

Historic Weather in King Edward Point — Graph

°F

King Edward Point Temperature Yesterday

Maximum temperature yesterday: 70 °F (at 2:50 PM)
Minimum temperature yesterday: 48 °F (at 12:50 AM)
Average temperature yesterday: 60 °F

High & Low Weather Summary for the Past Weeks

 TemperatureHumidityPressure
High70 °F (Feb 6, 1:50 PM)100% (Jan 28, 10:50 PM)30.18 "Hg (Jan 28, 10:50 PM)
Low41 °F (Feb 5, 6:50 AM)32% (Jan 31, 11:50 AM)29.21 "Hg (Feb 11, 11:50 PM)
Average53 °F73%29.77 "Hg
* Reported Jan 28 8:50 PM — Feb 12 8:50 PM, King Edward Point, Weather by CustomWeather, © 2016

Note: Actual official high and low records may vary slightly from our data, if they occured in-between our weather recording intervals... More about our weather records

Advertising

King Edward Point Weather History for the Previous 24 Hours

 ConditionsComfort  
Time TempWeatherWind HumidityBarometerVisibility
8:50 PM
Fri, Feb 12
50 °FSunny.7 mph76%29.39 "Hg10 mi
7:50 PM52 °FBroken clouds.7 mph72%29.39 "HgN/A
6:50 PM57 °FBroken clouds.10 mph44%29.39 "HgN/A
5:50 PM57 °FSunny.16 mph44%29.39 "Hg10 mi
4:50 PM57 °FSunny.16 mph41%29.39 "Hg10 mi
3:50 PM61 °FPartly sunny.16 mph39%29.39 "HgN/A
2:50 PM59 °FPartly sunny.16 mph45%29.39 "HgN/A
1:50 PM57 °FPartly sunny.16 mph48%29.42 "HgN/A
12:50 PM55 °FPartly sunny.15 mph51%29.42 "HgN/A
11:50 AM54 °FBroken clouds.15 mph58%29.42 "HgN/A
10:50 AM52 °FPartly sunny.13 mph67%29.42 "HgN/A
9:50 AM50 °FPartly sunny.15 mph76%29.42 "HgN/A
8:50 AM46 °FPartly sunny.14 mph87%29.42 "HgN/A
7:50 AM43 °FScattered clouds.12 mph93%29.39 "HgN/A
6:50 AM41 °FScattered clouds.12 mph93%29.36 "HgN/A
5:50 AM41 °FClear.12 mph93%29.36 "Hg10 mi
4:50 AM41 °FPassing clouds.9 mph93%29.33 "HgN/A
3:50 AM43 °FPassing clouds.6 mph93%29.33 "HgN/A
2:50 AM46 °FMostly cloudy.8 mph87%29.33 "HgN/A
1:50 AM48 °FOvercast.17 mph87%29.33 "HgN/A
12:50 AM54 °FLight rain. Partly cloudy.29 mph82%29.27 "HgN/A
11:50 PM
Thu, Feb 11
57 °FClear.31 mph63%29.21 "Hg10 mi
10:50 PM57 °FClear.18 mph63%29.24 "Hg10 mi
Weather by CustomWeather, © 2016

See weather overviewHow to use our weather pages